This is the latest recevied weather packets stored in our database for station/object KE5QKR. If no packets are shown the sender has not sent any weather packets the latest 10 day(s).
| Time | Temp. | Humidity | Pressure | Rain* | Wind** | Luminosity | Snow |
|---|---|---|---|---|---|---|---|
| 1777417562 | 27.22° C | 77% | 1013.5 hPa | 0 mm | - | 71 W/m² | - |
| 1777417258 | 27.22° C | 77% | 1013.3 hPa | 0 mm | - | 92 W/m² | - |
| 1777416954 | 27.22° C | 76% | 1013.4 hPa | 0 mm | - | 90 W/m² | - |
| 1777416654 | 27.78° C | 76% | 1013.2 hPa | 0 mm | - | 90 W/m² | - |
| 1777416351 | 27.78° C | 76% | 1013.1 hPa | 0 mm | - | 101 W/m² | - |
| 1777416050 | 27.78° C | 76% | 1013 hPa | 0 mm | - | 88 W/m² | - |
| 1777415746 | 28.33° C | 75% | 1012.9 hPa | 0 mm | - | 131 W/m² | - |
| 1777415442 | 28.33° C | 76% | 1012.8 hPa | 0 mm | - | 156 W/m² | - |
| 1777415137 | 28.33° C | 75% | 1012.8 hPa | 0 mm | - | 173 W/m² | - |
| 1777414832 | 28.33° C | 75% | 1013 hPa | 0 mm | - | 112 W/m² | - |
| 1777414527 | 28.33° C | 73% | 1013 hPa | 0 mm | - | 141 W/m² | - |
| 1777414227 | 28.33° C | 75% | 1013.3 hPa | 0 mm | - | 148 W/m² | - |
| 1777413922 | 28.33° C | 74% | 1013 hPa | 0 mm | - | 155 W/m² | - |
| 1777413618 | 28.33° C | 74% | 1013.3 hPa | 0 mm | - | 144 W/m² | - |
| 1777413314 | 28.89° C | 73% | 1013.4 hPa | 0 mm | - | 178 W/m² | - |
| 1777413010 | 28.89° C | 76% | 1013.4 hPa | 0 mm | - | 163 W/m² | - |
| 1777412709 | 28.89° C | 76% | 1013.4 hPa | 0 mm | - | 242 W/m² | - |
| 1777412409 | 28.89° C | 75% | 1013.5 hPa | 0 mm | - | 180 W/m² | - |
| 1777412108 | 28.89° C | 75% | 1013.3 hPa | 0 mm | - | 178 W/m² | - |
| 1777411803 | 28.89° C | 77% | 1013.3 hPa | 0 mm | - | 213 W/m² | - |
| 1777411502 | 28.89° C | 76% | 1013.3 hPa | 0 mm | - | 205 W/m² | - |
| 1777411202 | 29.44° C | 74% | 1013.6 hPa | 0 mm | - | 191 W/m² | - |
| 1777410897 | 28.89° C | 73% | 1013.4 hPa | 0 mm | - | 487 W/m² | - |
| 1777410597 | 29.44° C | 73% | 1013.3 hPa | 0 mm | - | 322 W/m² | - |
| 1777410296 | 28.89° C | 75% | 1013.2 hPa | 0 mm | - | 267 W/m² | - |
* Rain latest hour (hover to see other rain measurements)
** Current wind speed in m/s (hover to see current wind gust speed)